Arlington, WA
on Friday, November 23, 2012

Friday
Previous Day Next Day
Daily Summary
 ActualAverageRecord
Temperature
Mean Temperature °F °F  
Max Temperature 50°F 49°F 55°F (1997)
Min Temperature 44°F 31°F 15°F (1996)
Degree Days
Heating Degree Days 18    
Moisture
Dew Point 43°F   
Average Humidity 87    
Maximum Humidity 93    
Minimum Humidity 62    
Precipitation
Precipitation 0.02 in in in ()
Wind
Wind Speed 6 mph   
Max Wind Speed 16 mph   
Max Gust Speed 24 mph   
Visibility 8 miles   
Events     
Averages and records for this station are not official NWS values.
Key: T is trace of precipitation, MM is missing value
Source: NWS Daily Summary
Seasonal Weather Averages
Time(PST)TemperatureDew PointHumidity Pressure Visibility Wind DirectionWind SpeedGust SpeedPrecipitationEvents Conditions
12:15 AM 48.2°F 35.6°F 62% 30.18 in 10.0 miles ESE 16.1 mph - N/A   Overcast
12:35 AM 48.2°F 35.6°F 62% 30.20 in 10.0 miles SSW 6.9 mph 18.4 mph N/A   Overcast
12:55 AM 46.4°F 37.4°F 71% 30.20 in 10.0 miles South 9.2 mph - 0.01 in   Overcast
1:15 AM 44.6°F 39.2°F 81% 30.20 in 10.0 miles SSE 5.8 mph - N/A   Overcast
1:35 AM 44.6°F 37.4°F 76% 30.19 in 10.0 miles South 6.9 mph - N/A   Overcast
1:55 AM 44.6°F 39.2°F 81% 30.19 in 10.0 miles SSE 10.4 mph - N/A   Overcast
2:15 AM 44.6°F 39.2°F 81% 30.19 in 10.0 miles SSE 5.8 mph - N/A   Overcast
2:35 AM 44.6°F 39.2°F 81% 30.18 in 10.0 miles SE 8.1 mph - N/A   Overcast
2:55 AM 44.6°F 41.0°F 87% 30.16 in 10.0 miles ESE 5.8 mph - N/A   Overcast
3:15 AM 44.6°F 41.0°F 87% 30.16 in 10.0 miles WSW 4.6 mph - 0.01 in   Overcast
3:35 AM 44.6°F 39.2°F 81% 30.16 in 10.0 miles SW 4.6 mph - 0.01 in   Overcast
3:55 AM 44.6°F 39.2°F 81% 30.14 in 10.0 miles Calm Calm - 0.01 in   Overcast
4:15 AM 44.6°F 39.2°F 81% 30.12 in 10.0 miles Calm Calm - N/A   Mostly Cloudy
4:35 AM 44.6°F 41.0°F 87% 30.12 in 10.0 miles SW 3.5 mph - N/A   Overcast
4:55 AM 44.6°F 39.2°F 81% 30.12 in 10.0 miles South 5.8 mph - N/A   Overcast
5:15 AM 44.6°F 41.0°F 87% 30.14 in 10.0 miles Calm Calm - N/A   Overcast
5:35 AM 44.6°F 41.0°F 87% 30.12 in 10.0 miles Calm Calm - N/A   Overcast
5:55 AM 44.6°F 41.0°F 87% 30.12 in 10.0 miles Calm Calm - N/A   Overcast
6:15 AM 44.6°F 39.2°F 81% 30.12 in 10.0 miles SSE 5.8 mph - N/A   Overcast
6:35 AM 44.6°F 39.2°F 81% 30.12 in 10.0 miles Calm Calm - N/A   Overcast
6:55 AM 44.6°F 39.2°F 81% 30.11 in 10.0 miles SSE 10.4 mph - N/A   Overcast
7:15 AM 44.6°F 39.2°F 81% 30.10 in 10.0 miles SSE 9.2 mph - N/A   Overcast
7:35 AM 46.4°F 42.8°F 87% 30.11 in 10.0 miles SSE 9.2 mph - N/A   Overcast
7:55 AM 46.4°F 42.8°F 87% 30.11 in 10.0 miles SSE 12.7 mph - N/A   Overcast
8:15 AM 46.4°F 42.8°F 87% 30.12 in 10.0 miles South 5.8 mph - N/A   Overcast
8:35 AM 46.4°F 42.8°F 87% 30.12 in 10.0 miles SSE 5.8 mph - N/A   Overcast
8:55 AM 46.4°F 44.6°F 93% 30.12 in 10.0 miles SE 6.9 mph - N/A   Overcast
9:15 AM 46.4°F 44.6°F 93% 30.11 in 10.0 miles SSE 13.8 mph - N/A   Overcast
9:35 AM 48.2°F 44.6°F 87% 30.11 in 10.0 miles SE 11.5 mph - N/A   Overcast
9:55 AM 48.2°F 44.6°F 87% 30.11 in 10.0 miles SSE 11.5 mph - N/A   Overcast
10:15 AM 48.2°F 44.6°F 87% 30.10 in 10.0 miles SE 15.0 mph - N/A   Overcast
10:35 AM 48.2°F 44.6°F 87% 30.11 in 10.0 miles SSE 12.7 mph 17.3 mph N/A   Overcast
10:55 AM 48.2°F 44.6°F 87% 30.10 in 10.0 miles SE 11.5 mph 19.6 mph N/A   Overcast
11:15 AM 48.2°F 44.6°F 87% 30.09 in 10.0 miles South 6.9 mph - N/A   Overcast
11:35 AM 48.2°F 44.6°F 87% 30.08 in 10.0 miles SSE 5.8 mph - N/A   Overcast
11:55 AM 48.2°F 44.6°F 87% 30.08 in 10.0 miles South 6.9 mph - N/A   Overcast
12:15 PM 50.0°F 46.4°F 87% 30.07 in 10.0 miles South 8.1 mph - N/A   Overcast
12:35 PM 50.0°F 44.6°F 82% 30.07 in 10.0 miles South 16.1 mph 24.2 mph N/A   Overcast
12:55 PM 50.0°F 46.4°F 87% 30.07 in 10.0 miles South 11.5 mph 16.1 mph N/A   Overcast
1:15 PM 48.2°F 44.6°F 87% 30.07 in 10.0 miles SSW 8.1 mph - N/A   Overcast
1:35 PM 48.2°F 44.6°F 87% 30.08 in 10.0 miles South 6.9 mph - N/A   Overcast
1:55 PM 48.2°F 44.6°F 87% 30.07 in 10.0 miles South 6.9 mph - N/A   Overcast
2:15 PM 48.2°F 44.6°F 87% 30.07 in 10.0 miles South 3.5 mph - N/A   Overcast
2:35 PM 48.2°F 46.4°F 93% 30.06 in 10.0 miles SSE 5.8 mph - N/A   Overcast
2:55 PM 48.2°F 46.4°F 93% 30.06 in 10.0 miles SSE 6.9 mph - N/A   Overcast
3:15 PM 48.2°F 46.4°F 93% 30.06 in 10.0 miles SSE 3.5 mph - N/A   Overcast
3:35 PM 48.2°F 46.4°F 93% 30.06 in 10.0 miles Calm Calm - N/A   Overcast
3:55 PM 48.2°F 46.4°F 93% 30.06 in 10.0 miles Calm Calm - N/A   Overcast
4:15 PM 48.2°F 46.4°F 93% 30.06 in 1.8 miles Calm Calm - N/A   Overcast
4:35 PM 48.2°F 46.4°F 93% 30.05 in 2.5 miles Calm Calm - N/A   Overcast
4:55 PM 48.2°F 46.4°F 93% 30.05 in 2.5 miles Calm Calm - N/A   Overcast
5:15 PM 48.2°F 46.4°F 93% 30.05 in 2.0 miles Calm Calm - N/A   Overcast
5:35 PM 48.2°F 46.4°F 93% 30.05 in 2.0 miles Calm Calm - N/A   Overcast
5:55 PM 46.4°F 44.6°F 93% 30.05 in 2.0 miles Calm Calm - N/A   Overcast
6:15 PM 46.4°F 44.6°F 93% 30.05 in 2.0 miles Calm Calm - N/A   Overcast
6:35 PM 46.4°F 44.6°F 93% 30.05 in 4.0 miles Calm Calm - N/A   Overcast
6:55 PM 46.4°F 44.6°F 93% 30.06 in 2.5 miles Calm Calm - N/A   Overcast
7:15 PM 46.4°F 44.6°F 93% 30.06 in 3.0 miles Calm Calm - N/A   Overcast
7:35 PM 46.4°F 44.6°F 93% 30.06 in 4.0 miles Calm Calm - N/A   Overcast
7:55 PM 46.4°F 44.6°F 93% 30.07 in 6.0 miles Calm Calm - N/A   Overcast
8:15 PM 46.4°F 44.6°F 93% 30.07 in 5.0 miles Calm Calm - N/A   Overcast
8:35 PM 46.4°F 44.6°F 93% 30.08 in 6.0 miles Calm Calm - N/A   Overcast
8:55 PM 46.4°F 44.6°F 93% 30.08 in 5.0 miles Calm Calm - N/A   Overcast
9:15 PM 46.4°F 44.6°F 93% 30.09 in 4.0 miles Calm Calm - N/A   Overcast
9:35 PM 46.4°F 44.6°F 93% 30.09 in 5.0 miles Calm Calm - N/A   Overcast
9:55 PM 46.4°F 44.6°F 93% 30.10 in 4.0 miles Calm Calm - N/A   Mostly Cloudy
10:15 PM 46.4°F 44.6°F 93% 30.11 in 5.0 miles Calm Calm - N/A   Overcast
10:35 PM 46.4°F 44.6°F 93% 30.12 in 5.0 miles Calm Calm - N/A   Overcast
10:55 PM 46.4°F 44.6°F 93% 30.12 in 3.0 miles Calm Calm - N/A   Overcast
11:15 PM 46.4°F 44.6°F 93% 30.13 in 5.0 miles Calm Calm - N/A   Overcast
11:35 PM 46.4°F 44.6°F 93% 30.14 in 5.0 miles Calm Calm - N/A   Overcast
11:55 PM 46.4°F 44.6°F 93% 30.14 in 10.0 miles Calm Calm - N/A   Overcast
Moon Phase
Nov. 23 Nov. 28 Dec. 06 Dec. 13 Dec. 20
Sunrise:07:28 AM (PST) Moon Rise:01:55 PM (PST)11/23
Sunset:04:21 PM (PST) Moon Set:02:34 AM (PST)11/23

Copyright © 2014 The Weather Underground, Inc.